Probability
2 2 2 3 3 3 4 5 4 4 5 6 7 7 7 8 8 6 4 6 11 13 11 8 5 4 3 1 0 0 0 0 0 0 0 0 0 0 0 0 0 0 0
1 1 1 1 1 2 3 3 3 2 2 3 4 4 4 6 6 5 3 5 9 11 11 9 7 6 4 2 1 1 0 0 0 0 0 0 0 0 0 0 0 0 0
1 0 0 0 0 1 1 1 1 1 0 0 1 2 2 2 3 2 2 2 3 6 8 9 10 10 8 5 3 2 2 2 1 0 0 0 0 0 0 0 0 0 0
2 1 1 1 1 2 2 1 0 1 1 0 1 2 1 1 1 2 1 0 0 2 4 8 14 17 14 9 5 3 2 3 3 1 1 1 0 0 0 0 0 0 0
3 3 2 2 3 3 2 1 0 1 1 1 1 2 1 1 2 2 1 0 0 0 2 8 16 20 19 15 10 5 3 3 4 4 3 3 2 1 0 0 0 0 0
3 3 3 3 3 2 2 1 1 1 2 1 1 1 1 0 1 1 0 0 0 1 3 8 16 19 19 19 17 12 8 8 9 9 8 7 6 3 0 0 0 0 0
2 2 2 2 1 1 1 2 2 2 2 1 0 0 0 0 0 0 0 0 0 2 3 5 12 18 19 19 21 20 17 16 17 17 15 12 10 7 3 0 0 0 0
1 1 1 1 0 0 0 1 2 3 2 1 0 0 0 0 0 0 1 1 1 2 2 3 9 16 18 18 18 19 21 24 25 25 23 20 17 14 8 3 1 0 0
0 0 0 0 0 0 0 0 1 1 1 1 0 0 0 0 0 0 1 2 2 1 1 2 6 12 16 15 13 12 17 25 30 30 30 28 24 20 15 8 3 0 0
0 0 0 0 0 0 0 0 0 0 0 0 0 0 0 0 0 0 1 1 1 1 0 2 4 9 13 13 10 7 10 19 27 32 37 39 34 26 21 15 8 2 0
0 0 0 0 0 0 0 0 0 0 0 0 0 0 0 0 0 0 0 0 0 0 1 2 4 7 9 9 8 6 7 11 17 25 36 44 45 38 29 22 13 5 2
0 0 0 0 0 0 0 0 0 0 0 0 0 0 0 0 0 0 0 0 0 0 1 2 3 3 4 5 6 6 5 5 7 13 24 39 49 50 40 29 20 11 6
0 0 0 0 0 0 0 0 0 0 0 0 0 0 0 0 0 0 0 0 0 0 0 1 1 1 1 2 3 3 3 2 2 4 11 23 39 49 48 38 28 20 14
0 0 0 0 0 0 0 0 0 0 0 0 0 0 0 0 0 0 0 0 0 0 0 0 0 0 0 1 1 1 2 2 1 1 4 10 21 33 37 34 28 23 20
0 0 0 0 0 0 0 0 0 0 0 0 0 0 0 0 0 0 0 0 0 0 0 0 0 0 0 0 0 1 2 2 0 0 1 3 7 13 16 15 14 13 13
0 0 0 0 0 0 0 0 0 0 0 0 0 0 0 0 0 0 0 0 0 0 0 0 0 0 0 0 0 1 1 1 0 0 0 0 1 3 3 2 2 3 3
0 0 0 0 0 0 0 0 0 0 0 0 0 0 0 0 0 0 0 0 0 0 0 0 0 0 0 0 0 0 0 0 0 0 0 0 0 0 0 0 0 0 0
0 0 0 0 0 0 0 0 0 0 0 0 0 0 0 0 0 0 0 0 0 0 0 0 0 0 0 0 0 0 0 0 0 0 0 0 0 0 0 0 0 0 0
0 0 0 0 0 0 0 0 0 0 0 0 0 0 0 0 0 0 0 0 0 0 0 0 0 0 0 0 0 0 0 0 0 0 0 0 0 0 0 0 0 0 0
0 0 0 0 0 0 0 0 0 0 0 0 0 0 0 0 0 0 0 0 0 0 0 0 0 0 0 0 0 0 0 0 0 0 0 0 0 0 0 0 0 0 0
0 0 0 0 0 0 0 0 0 0 0 0 0 0 0 0 0 0 0 0 0 0 0 0 0 0 0 0 0 0 0 0 0 0 0 0 0 0 0 0 0 0 0
0 0 0 0 0 0 0 0 0 0 0 0 0 0 0 0 0 0 0 0 0 0 0 0 0 0 0 0 0 0 0 0 0 0 0 0 0 0 0 0 0 0 0
0 0 0 0 0 0 0 0 0 0 0 0 0 0 0 0 0 0 0 0 0 0 0 0 0 0 0 0 0 0 0 0 0 0 0 0 0 0 0 0 0 0 0
0 0 0 0 0 0 0 0 0 0 0 0 0 0 0 0 0 0 0 0 0 0 0 0 0 0 0 0 0 0 0 0 0 0 0 0 0 0 0 0 0 0 0
0 0 0 0 0 0 0 0 0 0 0 0 0 0 0 0 0 0 0 0 0 0 0 0 0 0 0 0 0 0 0 0 0 0 0 0 0 0 0 0 0 0 0
0 0 0 0 0 0 0 0 0 0 0 0 0 0 0 0 0 0 0 0 0 0 0 0 0 0 0 0 0 0 0 0 0 0 0 0 0 0 0 0 0 0 0
Wind_Speed
1 1 1 1 1 1 2 2 3 3 4 4 3 4 4 4 4 4 4 14 16 16 17 17 18 18 18 17 17 16 16 16 15 14 14 14 14 14 13 13 13 12 12
2 1 1 1 0 1 1 2 3 3 3 2 3 3 3 4 4 5 5 9 17 17 17 18 19 19 19 19 18 17 17 17 15 15 14 14 14 14 14 14 13 12 12
2 2 1 1 0 1 1 1 1 2 2 3 3 3 3 4 4 5 6 5 7 14 18 18 18 19 19 20 19 19 18 17 16 16 15 14 14 14 14 13 14 13 12
3 2 1 1 1 1 0 0 0 1 1 1 1 2 2 3 4 5 5 6 5 6 12 18 18 18 19 20 20 20 19 18 18 17 17 16 16 15 14 14 14 13 12
3 2 1 1 1 1 1 0 0 0 1 1 2 2 2 3 4 5 6 7 7 6 6 12 18 18 20 21 21 21 21 20 19 19 19 18 18 16 16 15 14 14 13
3 2 2 2 2 2 1 1 1 0 1 1 3 2 2 3 3 4 6 6 6 8 8 9 9 12 19 20 20 22 22 22 21 21 21 20 19 18 17 16 15 15 15
3 3 2 2 2 2 2 1 1 1 1 0 0 2 3 3 4 4 4 5 6 8 8 8 7 7 8 17 20 21 23 23 23 22 21 21 20 19 19 18 17 16 16
2 2 2 2 2 2 3 3 2 1 1 1 1 0 2 3 2 3 3 4 6 5 7 9 8 8 7 6 11 20 22 23 23 24 23 21 21 20 20 20 19 18 17
2 2 2 2 2 2 2 2 2 2 1 1 0 2 1 2 3 2 2 2 3 4 5 5 8 9 9 7 8 15 22 21 23 24 24 23 21 20 21 21 21 20 19
3 2 2 2 2 2 2 1 2 1 1 1 2 0 1 2 1 3 3 1 2 3 5 6 6 7 8 7 9 13 19 20 22 23 24 23 23 22 22 22 23 22 20
4 3 3 2 2 1 1 1 1 1 0 1 0 1 1 1 1 1 3 3 2 2 3 4 4 4 6 6 7 11 16 18 20 22 22 23 23 23 23 23 24 24 23
3 4 3 2 1 1 1 1 1 1 1 1 1 1 1 1 1 1 2 2 3 3 3 2 3 3 4 5 9 12 15 16 17 19 21 21 22 23 24 25 25 25 24
2 3 2 2 1 1 1 1 1 2 1 1 2 2 2 3 2 2 2 2 2 3 2 2 3 2 3 3 5 11 13 15 16 17 18 19 20 21 23 24 25 25 25
1 1 1 2 2 2 2 1 1 2 1 2 3 2 2 2 2 3 3 2 2 2 2 3 2 2 2 2 5 8 7 12 15 16 17 18 18 19 21 22 23 23 22
1 1 2 2 3 3 2 2 1 2 2 2 3 3 2 2 2 3 3 3 3 2 3 3 2 2 2 2 4 3 4 8 13 15 16 17 17 18 19 20 21 21 21
1 2 2 3 3 3 3 2 2 3 3 3 3 3 3 3 3 2 2 3 3 4 4 3 3 3 3 3 4 3 5 8 11 13 15 16 17 17 18 20 21 21 21
2 2 2 3 3 3 3 2 3 3 3 4 3 3 4 4 3 3 2 2 2 3 4 4 3 3 3 4 4 3 4 5 5 11 14 15 16 17 18 19 20 21 21
2 2 2 2 3 3 3 3 3 3 3 4 4 4 5 4 4 3 3 3 3 4 4 5 3 3 4 4 4 4 4 4 4 9 12 14 15 16 17 18 19 20 20
2 3 2 3 3 3 3 2 2 3 3 4 4 4 5 4 4 4 4 4 4 4 3 3 4 3 3 3 3 3 4 3 4 6 9 12 14 15 16 17 18 19 19
2 3 3 3 4 3 3 2 2 2 3 4 4 4 5 5 6 5 5 5 4 3 3 3 3 3 3 3 2 3 3 3 4 4 5 6 9 12 14 16 17 18 19
3 3 3 4 3 3 3 3 3 3 4 5 5 5 6 8 9 7 5 5 4 3 3 3 3 3 3 2 3 2 3 3 4 3 3 4 4 5 7 11 15 17 18
3 3 3 4 4 4 5 6 5 4 4 5 6 6 7 8 9 9 10 9 8 6 5 4 4 5 5 4 3 3 3 2 3 2 2 3 3 5 5 6 10 15 17
3 3 4 4 5 6 8 8 8 5 5 5 6 6 6 6 6 4 6 8 8 11 11 7 6 7 6 5 4 4 4 4 4 3 1 3 3 4 4 5 10 13 15
3 3 4 4 4 6 8 8 8 4 4 6 6 6 6 6 6 5 5 5 5 6 8 7 7 8 7 6 6 6 5 4 4 3 3 3 3 3 3 3 7 11 14
3 4 4 4 5 6 8 8 6 3 4 6 6 5 5 5 8 7 5 5 6 6 8 10 10 10 11 10 7 3 3 3 3 3 3 3 2 1 2 2 4 8 11
4 4 5 5 5 6 7 8 6 2 4 5 5 5 7 7 8 7 4 4 6 6 5 5 5 6 6 7 9 6 5 5 3 3 3 3 2 2 1 1 2 3 5
Wind_Direction
127 131 116 138 165 186 193 183 188 203 214 217 222 219 216 212 195 182 185 187 190 193 190 191 191 188 186 185 184 183 183 182 179 176 174 172 170 169 167 164 161 159 157
92 85 84 87 164 215 212 200 194 194 209 215 222 216 215 211 197 184 193 198 198 195 195 197 198 196 193 191 190 189 188 187 184 182 180 179 176 174 173 172 169 167 164
90 83 69 57 283 238 225 217 217 186 207 214 217 216 211 216 205 193 192 198 204 203 200 202 204 202 200 197 196 195 193 191 188 186 185 184 181 179 178 178 177 175 173
89 80 66 25 2 50 71 106 167 188 214 213 230 238 218 210 215 206 194 201 206 206 207 209 208 207 206 204 202 201 198 196 192 191 190 189 187 185 184 184 183 180 179
84 89 71 37 39 45 24 342 74 174 235 259 254 243 229 219 217 216 204 203 204 205 204 213 213 212 212 209 207 206 204 201 198 197 196 195 193 190 189 189 188 186 185
78 80 66 43 49 44 10 358 350 333 237 244 264 265 242 228 219 215 217 212 208 211 209 213 213 217 217 214 211 210 208 205 203 202 201 200 198 195 194 193 192 191 190
79 83 68 52 53 53 17 11 7 341 309 309 5 316 296 252 231 225 219 214 215 214 209 211 210 209 216 220 216 214 212 210 207 206 205 203 202 198 197 197 196 196 195
67 95 92 78 64 56 33 26 37 40 334 19 122 37 329 330 296 238 221 217 221 218 218 217 212 211 211 209 217 218 217 215 212 209 207 206 204 202 200 200 200 199 199
30 61 89 88 69 68 44 27 52 77 13 330 123 144 147 266 304 308 253 233 229 224 226 222 218 215 213 209 210 219 220 217 215 214 210 208 206 204 203 203 203 203 202
15 55 77 81 74 70 54 18 57 62 83 1 343 12 195 197 238 312 321 303 259 236 233 232 227 217 215 212 213 215 220 218 217 216 214 211 209 206 206 206 207 207 206
20 51 77 74 70 64 53 30 26 31 120 181 244 306 331 308 204 201 293 317 321 284 257 237 231 225 218 214 213 217 218 217 217 218 216 213 211 209 208 209 211 212 211
13 22 50 54 53 41 354 319 321 309 257 234 226 206 192 211 235 203 245 282 289 284 279 259 237 232 224 217 225 224 216 214 214 217 218 215 213 212 211 211 214 215 215
356 353 21 15 358 333 310 322 334 309 282 265 250 237 217 214 208 198 212 257 277 286 294 284 253 238 238 225 235 233 222 213 212 214 217 216 215 214 213 213 214 216 216
265 305 355 344 327 321 325 332 312 291 282 280 275 260 242 239 217 204 199 205 275 294 284 275 284 251 255 248 246 242 234 221 217 216 217 217 217 215 213 213 213 214 215
263 322 330 327 321 314 307 308 287 286 289 276 271 266 255 252 237 223 207 191 191 247 275 270 273 273 263 257 255 238 237 228 224 222 220 221 220 217 213 211 211 212 213
306 318 318 315 309 305 300 291 282 280 283 280 265 264 264 259 258 244 224 211 194 198 242 261 259 274 283 279 259 241 239 239 233 228 223 223 222 220 216 212 210 210 210
279 287 293 298 298 299 301 290 279 281 281 284 285 273 270 263 256 256 243 225 216 198 233 264 261 275 281 280 284 261 250 237 237 234 228 224 222 221 218 214 211 210 210
278 279 283 288 288 289 290 281 282 291 280 280 280 279 276 274 261 253 244 238 231 217 216 251 265 269 267 269 269 267 263 250 237 239 233 227 223 221 219 217 214 211 211
281 286 278 281 283 283 279 273 268 279 277 272 271 267 268 267 264 255 246 243 240 241 217 228 253 252 263 269 276 278 272 268 261 250 238 230 225 222 219 216 215 213 212
267 274 273 275 278 276 265 269 272 278 281 281 275 267 263 254 249 249 248 242 238 239 237 237 252 256 256 265 255 263 279 267 264 260 248 238 229 224 221 216 214 214 213
269 266 273 280 279 263 244 239 255 264 272 281 283 276 270 266 257 246 245 234 228 228 231 236 250 257 256 259 253 248 259 271 264 243 243 240 228 224 219 217 216 214 212
277 276 270 269 274 268 256 251 245 255 264 270 279 282 281 275 270 269 261 249 227 222 224 225 236 238 246 241 243 246 248 258 271 251 223 247 219 229 223 214 212 210 209
267 273 273 268 267 269 270 269 261 249 255 262 267 274 282 281 276 269 274 276 258 246 229 218 226 232 235 230 228 244 239 235 241 243 229 253 226 232 229 222 210 207 208
259 262 270 272 268 270 273 274 272 258 260 266 266 261 264 274 273 262 260 266 262 259 245 230 225 232 234 230 220 229 236 249 259 246 213 242 233 228 227 221 214 210 209
264 262 264 267 266 273 276 272 264 257 267 276 276 274 269 270 273 270 258 259 268 271 264 246 233 236 240 240 229 225 232 229 255 255 215 216 231 225 230 228 215 205 204
256 268 272 265 258 264 272 270 260 238 264 278 286 282 276 274 277 273 248 247 257 261 267 275 263 254 249 251 240 220 215 219 229 247 221 197 210 188 237 245 201 192 193